Showing default

COURIER 1B, 58

Orbit data source: Space-Track

COURIER 1B, 58 is a payload satellite owned by SCEL (US) in LEO that was launched on Tue, 04 Oct 1960 UTC via a THOR ABLESTAR launch vehicle from the Air Force Eastern Test Range (AFETR). Payload-class satellites include a variety of spacecraft equipped with specific instruments for various scientific and technological missions. These include communications satellites like Starlink; space stations such as the ISS; scientific satellites like the Hubble; Earth observation satellites from companies like Planet Labs, Umbra, and HawkEye 360; GPS; miniature CubeSats for education and research; and military/defense satellites.

Loading next visibility...
Identifier
58, 1960-013A
Orbit
LEO
Country
Flag of USUS
Related business
Manufacturer
SCEL/PHLP
Mission
Spacecraft
Bus & Motor
COURIER, Unknown motor
Mass
225 kg wet, 225 kg dry
Launch date (UTC)
1960-10-04 (65 years ago)
Launch vehicle
THOR ABLESTAR
Launch site
Air Force Eastern Test Range (AFETR)
Object type
Payload
Rocket body
Debris
Shape & HBR
Unknown
Radar Cross Section
Large (>1 m²)

Expand to show TLE details & history
Last TLE update: 1 day ago

TLE from 1 day ago
0 COURIER 1B
1    58U 60013A   25296.59335870  .00000128  00000-0  68635-4 0  9990
2    58  28.3268 260.2441 0164931  48.7063 312.7556 13.46418478202150
Epoch: 2025-10-23T14:14Z
TLE epoch observation values (Epoch: 2025-10-23T14:14:26.191Z)
Latitude
-0.00002°
Longitude
14.38455°
Altitude
1,001.413 km
Speed
7.394 km/s
True Right ascension
17h 20m 58s
True Declination
0° 00' 00"
Sunlit
Object was in daylight at epoch
Visualization orbit readout
Latitude
Unknown
Longitude
Unknown
Altitude
Unknown
Speed
Unknown
Apparent Right ascension
Unknown
Apparent Declination
Unknown
Sunlit
N/A
Visualization observer readout
Local Sidereal Time
11:03:13
Azimuth
Unknown
Elevation
Unknown
Doppler factor
Unknown
Orbital elements
Apogee altitude
1,212.543 km
Perigee altitude
966.218 km
Semi-major axis
7,467.518 km
Eccentricity
0.01649
Inclination
28.3268°
RAAN
260.2441°
Arg. of periapsis
48.7063°
True anomaly
311.34833°
Mean anomaly
312.7556°
Eccentric anomaly
312.05393°
Mean motion
3.3634 °/min
Orbital period
107.03 mins
BSTAR
0.000068635
Loading maneuver chart data...
Computing Atmospheric mass density...
Loading historical data...
Loading historical data...
Loading historical data...
Loading historical data...
Loading historical data...
Loading historical data...
Loading historical data...
Other satellites on launch #13 in the year 1960 (1960-10-04 UTC)

Documentation

Showing up to 5 results
|